sat.trackr.live / text

‹ back to catalog

YAOGAN-28

NORAD 41026 · 2015-064A

PAYLOAD ACTIVE UNKNOWN

§ Identity

Operator
Country
PRC
Launch date
2015-11-08
Launch site
TAISC
Launch vehicle
Mass (kg)
RCS (m²)
4.81

Purposes: earth_obs

External: N2YO · Heavens-Above · Gunter

§ Orbital elements

Epoch: 2026-09-04T04:12:50.347872Z

Period
94.22 min
Inclination
97.3180°
Eccentricity
0.0008851
Mean motion
15.28313921 rev/d
Perigee alt
474.8 km
Apogee alt
486.9 km
Semi-major
6,859.0 km
B*
1.7618e-4
RAAN
23.9295°
Arg perigee
271.2909°
Mean anomaly
88.7317°
Rev number
60,274

§ Raw data

YAOGAN-281 41026U 15064A   26247.17558273  .00004789  00000+0  17618-3 0  99912 41026  97.3180  23.9295 0008851 271.2909  88.7317 15.28313921602743

JSON: /api/v1/satellites/41026 · /tle

For live sub-satellite position, see the globe view (requires WebGL).

§ Visibility from observer

Set your observer location to see the next 7 days of passes ≥ 10°. The values pass through the URL so the page stays shareable.

No JS? Fill the form by hand. The geolocation button needs JavaScript.